TimeCST,TemperatureF,Dew PointF,Humidity,Sea Level PressureIn,VisibilityMPH,Wind Direction,Wind SpeedMPH,Gust SpeedMPH,PrecipitationIn,Events,Conditions,WindDirDegrees,DateUTC
12:15 AM,51.8,39.2,62,29.89,10.0,SE,4.6,-,N/A,,Clear,140,2012-11-09 06:15:00
12:35 AM,48.2,39.2,71,29.88,10.0,Calm,Calm,-,N/A,,Clear,0,2012-11-09 06:35:00
12:55 AM,48.2,37.4,66,29.88,10.0,Calm,Calm,-,N/A,,Scattered Clouds,0,2012-11-09 06:55:00
1:15 AM,46.4,37.4,71,29.87,10.0,Calm,Calm,-,N/A,,Scattered Clouds,0,2012-11-09 07:15:00
1:35 AM,48.2,37.4,66,29.86,10.0,Calm,Calm,-,N/A,,Scattered Clouds,0,2012-11-09 07:35:00
1:55 AM,48.2,39.2,71,29.87,10.0,Calm,Calm,-,N/A,,Clear,0,2012-11-09 07:55:00
2:15 AM,48.2,39.2,71,29.87,10.0,Calm,Calm,-,N/A,,Clear,0,2012-11-09 08:15:00
2:35 AM,48.2,39.2,71,29.86,10.0,Calm,Calm,-,N/A,,Scattered Clouds,0,2012-11-09 08:35:00
2:55 AM,48.2,39.2,71,29.86,10.0,Calm,Calm,-,N/A,,Scattered Clouds,0,2012-11-09 08:55:00
3:35 AM,48.2,39.2,71,29.85,10.0,Calm,Calm,-,N/A,,Clear,0,2012-11-09 09:35:00
3:55 AM,48.2,39.2,71,29.85,10.0,Calm,Calm,-,N/A,,Clear,0,2012-11-09 09:55:00
4:15 AM,48.2,39.2,71,29.85,10.0,Calm,Calm,-,N/A,,Clear,0,2012-11-09 10:15:00
4:35 AM,48.2,39.2,71,29.85,10.0,Calm,Calm,-,N/A,,Clear,0,2012-11-09 10:35:00
4:55 AM,48.2,39.2,71,29.85,10.0,Calm,Calm,-,N/A,,Scattered Clouds,0,2012-11-09 10:55:00
5:15 AM,48.2,39.2,71,29.86,10.0,East,3.5,-,N/A,,Scattered Clouds,80,2012-11-09 11:15:00
5:35 AM,48.2,39.2,71,29.85,10.0,East,3.5,-,N/A,,Scattered Clouds,90,2012-11-09 11:35:00
5:55 AM,46.4,39.2,76,29.85,10.0,East,3.5,-,N/A,,Scattered Clouds,100,2012-11-09 11:55:00
6:15 AM,46.4,39.2,76,29.84,10.0,Calm,Calm,-,N/A,,Scattered Clouds,0,2012-11-09 12:15:00
6:35 AM,48.2,39.2,71,29.85,10.0,Calm,Calm,-,N/A,,Scattered Clouds,0,2012-11-09 12:35:00
6:55 AM,46.4,39.2,76,29.85,10.0,Calm,Calm,-,N/A,,Clear,0,2012-11-09 12:55:00
7:15 AM,46.4,39.2,76,29.86,10.0,Calm,Calm,-,N/A,,Clear,0,2012-11-09 13:15:00
7:35 AM,48.2,39.2,71,29.86,10.0,Calm,Calm,-,N/A,,Clear,0,2012-11-09 13:35:00
7:55 AM,50.0,41.0,71,29.86,10.0,Calm,Calm,-,N/A,,Clear,0,2012-11-09 13:55:00
8:15 AM,51.8,42.8,71,29.86,10.0,Calm,Calm,-,N/A,,Clear,0,2012-11-09 14:15:00
8:55 AM,53.6,42.8,67,29.86,10.0,SE,5.8,-,N/A,,Clear,130,2012-11-09 14:55:00
9:15 AM,55.4,44.6,67,29.85,10.0,SE,6.9,-,N/A,,Clear,140,2012-11-09 15:15:00
9:35 AM,57.2,44.6,63,29.85,10.0,SE,8.1,-,N/A,,Clear,130,2012-11-09 15:35:00
9:55 AM,59.0,44.6,59,29.85,10.0,SSE,6.9,-,N/A,,Clear,150,2012-11-09 15:55:00
10:15 AM,60.8,44.6,55,29.85,10.0,SSE,8.1,-,N/A,,Clear,150,2012-11-09 16:15:00
10:35 AM,60.8,46.4,59,29.85,10.0,SE,6.9,-,N/A,,Clear,140,2012-11-09 16:35:00
10:55 AM,60.8,46.4,59,29.84,10.0,SE,5.8,-,N/A,,Clear,140,2012-11-09 16:55:00
11:15 AM,62.6,46.4,55,29.83,10.0,SE,6.9,-,N/A,,Clear,140,2012-11-09 17:15:00
11:35 AM,62.6,46.4,55,29.82,10.0,SE,5.8,-,N/A,,Clear,130,2012-11-09 17:35:00
11:55 AM,64.4,48.2,56,29.81,10.0,SE,9.2,-,N/A,,Clear,130,2012-11-09 17:55:00
12:15 PM,64.4,48.2,56,29.79,10.0,SE,8.1,-,N/A,,Clear,140,2012-11-09 18:15:00
12:35 PM,64.4,48.2,56,29.78,10.0,ESE,9.2,-,N/A,,Clear,120,2012-11-09 18:35:00
12:55 PM,64.4,48.2,56,29.77,10.0,SE,11.5,-,N/A,,Clear,130,2012-11-09 18:55:00
1:15 PM,64.4,48.2,56,29.77,10.0,SSE,11.5,-,N/A,,Clear,160,2012-11-09 19:15:00
1:35 PM,64.4,48.2,56,29.77,10.0,ESE,8.1,-,N/A,,Clear,110,2012-11-09 19:35:00
1:55 PM,66.2,50.0,56,29.76,10.0,ESE,8.1,-,N/A,,Clear,120,2012-11-09 19:55:00
2:15 PM,68.0,51.8,56,29.75,10.0,SE,10.4,-,N/A,,Clear,130,2012-11-09 20:15:00
2:35 PM,69.8,51.8,53,29.75,10.0,SE,10.4,-,N/A,,Clear,130,2012-11-09 20:35:00
2:55 PM,69.8,51.8,53,29.75,10.0,SE,9.2,-,N/A,,Clear,130,2012-11-09 20:55:00
3:15 PM,69.8,51.8,53,29.74,10.0,SE,11.5,-,N/A,,Clear,140,2012-11-09 21:15:00
3:35 PM,69.8,51.8,53,29.74,10.0,SE,9.2,-,N/A,,Clear,130,2012-11-09 21:35:00
3:55 PM,69.8,51.8,53,29.73,10.0,ESE,10.4,-,N/A,,Clear,120,2012-11-09 21:55:00
4:15 PM,69.8,51.8,53,29.73,10.0,SE,9.2,-,N/A,,Clear,130,2012-11-09 22:15:00
4:35 PM,69.8,51.8,53,29.73,10.0,ESE,6.9,-,N/A,,Clear,120,2012-11-09 22:35:00
4:55 PM,68.0,51.8,56,29.71,10.0,ESE,8.1,-,N/A,,Clear,110,2012-11-09 22:55:00
5:15 PM,66.2,51.8,60,29.72,10.0,ESE,9.2,-,N/A,,Scattered Clouds,120,2012-11-09 23:15:00
5:35 PM,64.4,51.8,64,29.72,10.0,ESE,8.1,-,N/A,,Clear,110,2012-11-09 23:35:00
5:55 PM,64.4,51.8,64,29.72,10.0,ESE,8.1,-,N/A,,Scattered Clouds,110,2012-11-09 23:55:00
6:15 PM,64.4,51.8,64,29.72,10.0,East,9.2,-,N/A,,Clear,100,2012-11-10 00:15:00
6:35 PM,64.4,51.8,64,29.73,10.0,ESE,9.2,-,N/A,,Scattered Clouds,110,2012-11-10 00:35:00
6:55 PM,66.2,53.6,64,29.73,10.0,ESE,10.4,-,N/A,,Mostly Cloudy,110,2012-11-10 00:55:00
7:15 PM,64.4,53.6,68,29.73,10.0,ESE,9.2,-,N/A,,Scattered Clouds,110,2012-11-10 01:15:00
7:35 PM,64.4,53.6,68,29.73,10.0,East,8.1,-,N/A,,Scattered Clouds,100,2012-11-10 01:35:00
7:55 PM,64.4,55.4,73,29.73,10.0,SE,4.6,-,N/A,,Mostly Cloudy,130,2012-11-10 01:55:00
8:15 PM,66.2,55.4,68,29.73,10.0,SE,8.1,-,N/A,,Overcast,130,2012-11-10 02:15:00
8:35 PM,66.2,55.4,68,29.72,10.0,SE,6.9,-,N/A,,Overcast,140,2012-11-10 02:35:00
9:15 PM,66.2,55.4,68,29.73,10.0,SSE,11.5,-,N/A,,Scattered Clouds,160,2012-11-10 03:15:00
9:35 PM,64.4,55.4,73,29.73,10.0,South,10.4,-,N/A,,Clear,170,2012-11-10 03:35:00
9:56 PM,64.4,57.2,77,29.72,10.0,South,9.2,-,N/A,,Scattered Clouds,180,2012-11-10 03:56:00
10:20 PM,66.2,57.2,73,29.72,10.0,South,11.5,-,N/A,,Scattered Clouds,180,2012-11-10 04:20:00
10:37 PM,66.2,57.2,73,29.71,10.0,South,10.4,-,N/A,,Scattered Clouds,170,2012-11-10 04:37:00
10:58 PM,66.2,57.2,73,29.70,10.0,South,12.7,-,N/A,,Clear,170,2012-11-10 04:58:00
11:17 PM,64.4,57.2,77,29.70,10.0,South,12.7,-,N/A,,Clear,170,2012-11-10 05:17:00
11:38 PM,64.4,57.2,77,29.69,10.0,South,9.2,-,N/A,,Scattered Clouds,170,2012-11-10 05:38:00
11:58 PM,64.4,57.2,77,29.69,10.0,South,10.4,-,N/A,,Scattered Clouds,170,2012-11-10 05:58:00